Weather in Szczecin

Poland     53°25′58″N   14°32′52″E
temp.,
°C
wind,
m/s
gust,
m/s
humid.,
%
clouds,
%
prec.,
mm/h
press.,
hPa
HPBL,
m
21 april, wed
wed2123:00+5n22865 0.0 101420
02:00+4nnw22875 0.0 101427
05:00+4wnw22885 0.0 101313
08:00+7w24645 0.0 1013172
11:00+13w45450 0.0 10131040
14:00+15w574319 0.0 10122170
17:00+12nw6964100 0.6 10121295
20:00+7wnw510575 0.7 10131137
22 april, thu
thu2223:00+4wnw611605 0.0 1013965
02:00+3w6127134 0.0 1013905
05:00+4w61169100 0.0 10131260
08:00+5w61066100 0.0 10141021
11:00+7wnw796795 1.0 10141479
14:00+9wnw685992 3.4 10151864
17:00+9nnw595673 1.1 10152123
20:00+5wnw24597 1.1 1017103
23 april, fri
fri2323:00+2wsw39750 0.0 1017192
02:00+3w5138993 0.1 1017468
05:00+2w6139244 0.4 1017587
08:00+5wnw510816 0.5 1019545
11:00+9nw8123710 0.1 10202793
14:00+9nnw7113614 0.1 10222454
17:00+8nnw711354 0.0 10232232
20:00+5nw511450 0.0 10241055
24 april, sat
sat2423:00+2w376014 0.0 1025150
02:00+1w38685 0.0 1025169
05:000w25815 0.0 102498
08:00+4wnw478291 0.0 1024398
11:00+8wnw576489 0.4 10231399
14:00+9nnw69515 1.2 10231792
17:00+8nnw711360 0.0 10242200
20:00+5nnw410502 0.0 1025539
25 april, sun
sun2523:00+3nw38666 0.0 1025207
02:00+1wnw37776 0.0 1026164
05:000wnw258328 0.0 1026108
08:00+5nw4865100 0.1 1026547
11:00+8nnw7114574 0.4 10252226
14:00+9nnw8134057 0.4 10242613
17:00+8nnw71342100 0.0 10242174
20:00+5nnw495159 0.0 1023471